sat.trackr.live / text

‹ back to catalog

STARLINK-30769

NORAD 58138 · 2023-162W

PAYLOAD ACTIVE UNKNOWN

§ Identity

Operator
Country
US
Launch date
2023-10-22
Launch site
AFETR
Launch vehicle
Mass (kg)
RCS (m²)

Purposes: comms

External: N2YO · Heavens-Above · Gunter

§ Orbital elements

Epoch: 2026-05-24T22:48:23.702112Z

Period
94.27 min
Inclination
43.0069°
Eccentricity
0.0002010
Mean motion
15.27569775 rev/d
Perigee alt
481.7 km
Apogee alt
484.5 km
Semi-major
6,861.2 km
B*
3.8156e-5
RAAN
61.5018°
Arg perigee
261.9980°
Mean anomaly
98.0644°
Rev number
14,397

§ Raw data

STARLINK-307691 58138U 23162W   26144.95027433  .00000787  00000+0  38156-4 0  99972 58138  43.0069  61.5018 0002010 261.9980  98.0644 15.27569775143977

JSON: /api/v1/satellites/58138 · /tle

For live sub-satellite position, see the globe view (requires WebGL).

§ Visibility from observer

Set your observer location to see the next 7 days of passes ≥ 10°. The values pass through the URL so the page stays shareable.

No JS? Fill the form by hand. The geolocation button needs JavaScript.